Jaffrey, NH

4:23 AM EDT on August 20, 2017 (GMT -0400)
Jaffrey Airport-Silver Ranch

Weather History for KAFN - November, 2012

Change the Weather History Date:

Monday, November 19, 2012

  Actual Average Record
Temperature  
Mean Temperature 32 °F -  
Max Temperature 46 °F 42 °F 61 °F (2016)
Min Temperature 18 °F 26 °F 10 °F (1997)
Degree Days  
Heating Degree Days 33    
Moisture  
Dew Point 21 °F    
Average Humidity 76    
Maximum Humidity 89    
Minimum Humidity 44    
Precipitation  
Precipitation 0.00 in - - ()
Sea Level Pressure  
Sea Level Pressure 30.50 in    
Wind  
Wind Speed 0 mph (NE)    
Max Wind Speed 4 mph    
Max Gust Speed -    
Visibility 10 miles    
Events      
Averages and records for this station are not official NWS values.
T = Trace of Precipitation, MM = Missing Value Source: NWS Daily Summary

Daily Weather History Graph

Daily Weather History Graph

Search for Another Location

Airport or City:

Trip Planner

Search our weather history database for the weather conditions in past years. The results will help you decide how hot, cold, wet, or windy it might be!

Date:

Astronomy

Nov. 19, 2012 Rise Set
Actual Time 6:45 AM EST 4:21 PM EST
Civil Twilight 6:14 AM EST 4:51 PM EST
Nautical Twilight 5:40 AM EST 5:26 PM EST
Astronomical Twilight 5:06 AM EST 6:00 PM EST
Moon 11:43 AM EST (11/19) 10:48 PM EST (11/19)
Length of Visible Light 10h 37m
Length of Day
9h 35m
Waxing Crescent, 40% of the Moon is Illuminated
Nov 19
Waxing Crescent
Nov 20
First Quarter
Nov 28
Full
Dec 6
Last Quarter
Dec 13
New

Hourly Weather History & Observations

Time (EST) Temp. Windchill Dew Point Humidity Pressure Visibility Wind Dir Wind Speed Gust Speed Precip Events Conditions
12:52 AM 21.9 °F - 18.0 °F 85% 30.65 in 10.0 mi Calm Calm - N/A   Clear
1:52 AM 21.0 °F - 17.1 °F 85% 30.64 in 10.0 mi Calm Calm - N/A   Clear
2:52 AM 19.9 °F - 17.1 °F 89% 30.63 in 10.0 mi Calm Calm - N/A   Clear
3:52 AM 19.9 °F - 16.0 °F 85% 30.61 in 9.0 mi Calm Calm - N/A   Clear
4:52 AM 19.0 °F - 15.1 °F 85% 30.61 in 10.0 mi Calm Calm - N/A   Clear
5:52 AM 18.0 °F - 14.0 °F 84% 30.61 in 10.0 mi Calm Calm - N/A   Clear
6:16 AM 19.4 °F - 15.8 °F 86% 30.55 in 9.0 mi Calm Calm - N/A   Mostly Cloudy
6:34 AM 19.4 °F - 14.0 °F 80% 30.54 in 9.0 mi Calm Calm - N/A   Partly Cloudy
6:52 AM 18.0 °F - 14.0 °F 84% 30.61 in 8.0 mi Calm Calm - N/A   Clear
7:52 AM 19.9 °F - 17.1 °F 89% 30.59 in 9.0 mi Calm Calm - N/A   Clear
8:52 AM 28.0 °F - 23.0 °F 81% 30.57 in 10.0 mi Calm Calm - N/A   Clear
9:52 AM 34.0 °F 31.0 °F 24.1 °F 67% 30.55 in 10.0 mi NNE 3.5 mph - N/A   Clear
10:52 AM 39.9 °F 37.8 °F 26.1 °F 58% 30.52 in 10.0 mi ENE 3.5 mph - N/A   Clear
11:52 AM 43.0 °F - 27.0 °F 53% 30.48 in 10.0 mi Calm Calm - N/A   Clear
12:52 PM 45.0 °F - 27.0 °F 49% 30.45 in 10.0 mi Calm Calm - N/A   Clear
1:52 PM 46.9 °F - 26.1 °F 44% 30.43 in 10.0 mi Calm Calm - N/A   Clear
2:52 PM 46.0 °F - 26.1 °F 46% 30.42 in 10.0 mi Calm Calm - N/A   Clear
3:52 PM 42.1 °F - 27.0 °F 55% 30.41 in 10.0 mi Calm Calm - N/A   Clear
4:52 PM 33.1 °F - 27.0 °F 78% 30.41 in 10.0 mi Calm Calm - N/A   Clear
5:52 PM 30.0 °F - 25.0 °F 82% 30.42 in 10.0 mi Calm Calm - N/A   Clear
6:52 PM 28.0 °F - 25.0 °F 88% 30.40 in 10.0 mi Calm Calm - N/A   Clear
7:52 PM 27.0 °F - 24.1 °F 89% 30.39 in 10.0 mi Calm Calm - N/A   Clear
9:52 PM 25.0 °F - 21.9 °F 88% 30.34 in 10.0 mi Calm Calm - N/A   Clear
10:52 PM 24.1 °F - 21.0 °F 88% 30.32 in 10.0 mi Calm Calm - N/A   Clear
11:52 PM 23.0 °F - 19.9 °F 88% 30.30 in 10.0 mi Calm Calm - N/A   Clear